Location: L�Ave Maria
(50.7161°N, 1.5911°E)
Time: 00:36:20
(UTC+00:00)

Cosmos 2333 Rocket - Pass Details

Date: 10 July 2020
Orbit: 837 x 864 km, 70.8° (Epoch: 03 August)

Event Time Altitude Azimuth Distance (km) Brightness Sun altitude
Rises 21:22:02 0° 221° (SW) 3,400 5.2 -9.4°
Reaches altitude 10° 21:24:30 10° 225° (SW) 2,473 4.5 -9.6°
Maximum altitude 21:30:08 60° 305° (NW) 975 2.9 -10.1°
Drops below altitude 10° 21:35:50 10° 25° (NNE) 2,505 5.1 -10.6°
Sets 21:38:21 0° 29° (NNE) 3,449 5.8 -10.9°
